Pogoda w Łodzi

1651 UTC 23 October 2017 EPLL 231630Z 32005KT 290V360 5000 BR OVC006 09/08 Q1015

Where pilots are born

  • Jeremie from Belgium

    "Bartolini Air est une super ecole : les instructeurs et les dirigeants sont a la disposition des eleve-pilotes non...

  • Ismail

    Best school, friendly staff, amazing instructors. Cheers,

  • Maxime from Belgium

    I would like to thank you again Bartolini Air for their professionalism and commitment. It is a high quality training with...

22000+

Operations per year

1500+

Number of trained pilots

55+

Nationality students

Jak przystąpić do szkolenia ?